This is the latest recevied weather packets stored in our database for station/object F5LKO-13. If no packets are shown the sender has not sent any weather packets the latest 10 day(s).
| Time | Temp. | Humidity | Pressure | Rain* | Wind** | Luminosity | Snow |
|---|---|---|---|---|---|---|---|
| 1777904256 | 15° C | 99% | 1015.3 hPa | 0 mm | - | 0 W/m² | - |
| 1777903942 | 15° C | 99% | 1015.3 hPa | 0 mm | - | 1 W/m² | - |
| 1777903636 | 14.44° C | 99% | 1015.3 hPa | 0 mm | - | 1 W/m² | - |
| 1777903330 | 14.44° C | 99% | 1015.3 hPa | 0 mm | - | 1 W/m² | - |
| 1777903023 | 15° C | 99% | 1015.4 hPa | 0 mm | - | 0 W/m² | - |
| 1777902718 | 15° C | 99% | 1015.3 hPa | 0 mm | - | 0 W/m² | - |
| 1777902420 | 15.56° C | 99% | 1015.3 hPa | 0 mm | - | 0 W/m² | - |
| 1777902105 | 15.56° C | 99% | 1015.2 hPa | 0 mm | - | 1 W/m² | - |
| 1777901799 | 15° C | 99% | 1015 hPa | 0 mm | - | 1 W/m² | - |
| 1777901493 | 15.56° C | 99% | 1015.2 hPa | 0 mm | - | 1 W/m² | - |
| 1777901187 | 15.56° C | 99% | 1015.2 hPa | 0 mm | - | 1 W/m² | - |
| 1777900882 | 15.56° C | 99% | 1015.1 hPa | 0 mm | - | 1 W/m² | - |
| 1777900584 | 15.56° C | 99% | 1015 hPa | 0 mm | - | 1 W/m² | - |
| 1777900269 | 16.11° C | 99% | 1015.2 hPa | 0 mm | - | 1 W/m² | - |
| 1777899963 | 16.11° C | 99% | 1015.1 hPa | 0 mm | - | 1 W/m² | - |
| 1777899658 | 15.56° C | 99% | 1015.1 hPa | 0 mm | - | 1 W/m² | - |
| 1777899351 | 15.56° C | 99% | 1015.1 hPa | 0 mm | - | 1 W/m² | - |
| 1777899045 | 15.56° C | 99% | 1015.1 hPa | 0 mm | - | 1 W/m² | - |
| 1777898748 | 16.67° C | 99% | 1015 hPa | 0 mm | - | 0 W/m² | - |
| 1777898433 | 16.67° C | 99% | 1015 hPa | 0 mm | - | 0 W/m² | - |
| 1777898127 | 17.78° C | 99% | 1015 hPa | 0 mm | - | 1 W/m² | - |
| 1777897821 | 17.78° C | 99% | 1015 hPa | 0 mm | - | 3 W/m² | - |
| 1777897516 | 17.78° C | 99% | 1015 hPa | 0 mm | - | 5 W/m² | - |
| 1777897210 | 17.22° C | 99% | 1014.9 hPa | 0 mm | - | 34 W/m² | - |
| 1777896912 | 16.67° C | 99% | 1014.9 hPa | 0 mm | - | 10 W/m² | - |
* Rain latest hour (hover to see other rain measurements)
** Current wind speed in m/s (hover to see current wind gust speed)